DW4559 Weather Reports


time (UTC)temp
F
wind
direction
speed
knots
gust
knots
rain 1hr
in
rain 24hr
in
rain mn
in
humidity
%
barometer
mb
20260503050904 48 24 0.9 2.6 0.00 0.00 0.00 62 1005.1
20260503050404 48 355 0.9 2.6 0.00 0.00 0.00 64 1005.2
20260503045904 48 19 0.9 1.7 0.00 0.00 0.00 62 1005.2
20260503045404 48 28 0.9 2.6 0.00 0.00 0.00 63 1005.3
20260503044904 48 340 0.9 2.6 0.00 0.00 0.00 64 1005.3
20260503044404 49 8 0.0 0.9 0.00 0.00 0.00 64 1005.1
20260503043903 49 73 0.9 2.6 0.00 0.00 0.00 63 1005.1
20260503043404 49 79 0.0 2.6 0.00 0.00 0.00 65 1005.2
20260503042904 49 320 0.9 1.7 0.00 0.00 0.00 64 1005.3
20260503042405 49 73 0.9 2.6 0.00 0.00 0.00 63 1005.3
20260503041904 49 65 0.9 1.7 0.00 0.00 0.00 63 1005.5
20260503041403 49 15 0.9 1.7 0.00 0.00 0.00 63 1005.6
20260503040904 49 307 0.0 1.7 0.00 0.00 0.00 64 1005.5
20260503040403 49 319 0.9 2.6 0.00 0.00 0.00 62 1005.4
20260503035904 49 171 0.9 1.7 0.00 0.00 0.00 61 1005.4
20260503035403 49 26 0.9 2.6 0.00 0.00 0.00 61 1005.3
20260503034904 49 96 0.9 2.6 0.00 0.00 0.00 62 1005.2
20260503033904 49 60 1.7 2.6 0.00 0.00 0.00 64 1005.3
20260503033404 49 317 0.9 1.7 0.00 0.00 0.00 64 1005.1
20260503032904 49 346 0.0 1.7 0.00 0.00 0.00 65 1005.1
20260503032404 49 40 0.9 2.6 0.00 0.00 0.00 64 1005.2
20260503031904 50 17 0.0 1.7 0.00 0.00 0.00 64 1005.2
20260503031404 50 49 0.0 1.7 0.00 0.00 0.00 63 1005.2
20260503030403 50 39 0.0 1.7 0.00 0.00 0.00 66 1005.2
20260503025904 50 49 0.9 2.6 0.00 0.00 0.00 67 1005.2
20260503025404 50 274 0.0 1.7 0.00 0.00 0.00 68 1005.2
20260503024904 50 92 0.9 1.7 0.00 0.00 0.00 69 1005.3
20260503023904 48 352 0.9 2.6 0.00 0.00 0.00 79 1005.5
20260503023403 47 298 0.9 2.6 0.00 0.00 0.00 87 1005.5
20260503022903 47 326 0.0 0.9 0.00 0.00 0.00 90 1005.5
20260503022404 47 328 0.0 0.0 0.00 0.00 0.00 90 1005.5
20260503021904 48 328 0.9 1.7 0.00 0.00 0.00 91 1005.6
20260503021403 48 341 0.0 0.9 0.00 0.00 0.00 90 1005.5
20260503020404 48 339 0.0 0.9 0.00 0.00 0.00 90 1005.5
20260503015904 48 342 0.0 0.9 0.00 0.00 0.00 90 1005.5
20260503015404 48 350 0.0 0.9 0.00 0.00 0.00 90 1005.5
20260503014904 48 9 0.0 0.9 0.00 0.00 0.00 89 1005.3
20260503014403 48 27 0.0 0.9 0.00 0.00 0.00 89 1005.3
20260503013404 49 29 0.0 0.9 0.00 0.00 0.00 88 1005.5
20260503012903 49 27 0.0 0.9 0.00 0.00 0.00 87 1005.4
20260503012404 49 33 0.0 0.0 0.00 0.00 0.00 87 1005.4
20260503011903 50 33 0.0 0.0 0.00 0.00 0.00 86 1005.3
20260503011404 50 4 0.0 0.9 0.00 0.00 0.00 86 1005.4
20260503010903 50 33 0.0 0.0 0.00 0.00 0.00 85 1005.2
20260503010404 50 33 0.0 0.0 0.00 0.00 0.00 86 1005.2
20260503005403 50 33 0.0 0.0 0.00 0.00 0.00 84 1005.1
20260503004905 50 33 0.0 0.0 0.00 0.00 0.00 83 1005.0
20260503004404 51 24 0.0 0.9 0.00 0.00 0.00 83 1004.9
20260503003905 51 21 0.0 0.0 0.00 0.00 0.00 82 1005.0
20260503003405 51 8 0.0 0.9 0.00 0.00 0.00 81 1004.9
20260503002405 51 354 0.0 0.9 0.00 0.00 0.00 77 1004.9
20260503001905 51 352 0.0 0.0 0.00 0.00 0.00 76 1004.9
20260503001405 52 352 0.0 0.9 0.00 0.00 0.00 76 1004.8
20260503000905 52 329 0.0 0.0 0.00 0.00 0.00 74 1004.8
20260503000405 52 329 0.0 0.9 0.00 0.00 0.00 74 1004.8
20260502235905 53 328 0.0 0.9 0.00 0.00 0.00 73 1004.8
20260502235405 53 328 0.0 0.0 0.00 0.00 0.00 73 1004.7
20260502234404 54 328 0.0 0.0 0.00 0.00 0.00 70 1004.7
20260502233905 54 328 0.0 0.0 0.00 0.00 0.00 70 1004.7
20260502233404 55 328 0.0 0.0 0.00 0.00 0.00 68 1004.7
20260502232905 55 328 0.0 0.0 0.00 0.00 0.00 68 1004.7
20260502232405 55 328 0.0 0.9 0.00 0.00 0.00 66 1004.6
20260502231905 55 138 0.0 0.9 0.00 0.00 0.00 65 1004.7
20260502231404 55 335 0.0 0.9 0.00 0.00 0.00 65 1004.7
20260502230905 55 124 0.0 0.9 0.00 0.00 0.00 65 1004.7
20260502225405 55 141 0.0 0.0 0.00 0.00 0.00 66 1004.6
20260502224904 56 127 0.0 0.9 0.00 0.00 0.00 66 1004.8
20260502224405 56 81 0.0 0.9 0.00 0.00 0.00 65 1004.8
20260502223904 56 89 0.0 1.7 0.00 0.00 0.00 64 1004.6
20260502222904 56 41 0.0 0.9 0.00 0.00 0.00 64 1004.6
20260502222405 57 98 0.0 1.7 0.00 0.00 0.00 63 1004.6
20260502221904 57 179 0.0 0.9 0.00 0.00 0.00 63 1004.7
20260502221405 57 63 0.0 1.7 0.00 0.00 0.00 64 1004.7
20260502220905 56 117 0.9 2.6 0.00 0.00 0.00 63 1004.7
20260502220404 56 338 0.0 0.9 0.00 0.00 0.00 64 1004.6
20260502215905 56 340 0.9 2.6 0.00 0.00 0.00 65 1004.7
20260502215405 56 120 0.9 2.6 0.00 0.00 0.00 64 1004.7
20260502214905 56 296 0.0 2.6 0.00 0.00 0.00 65 1004.7
20260502214405 56 67 0.9 2.6 0.00 0.00 0.00 65 1004.7
20260502213904 56 83 0.0 0.9 0.00 0.00 0.00 65 1004.7
20260502213405 56 336 0.9 4.3 0.00 0.00 0.00 64 1004.6
20260502211905 56 59 0.0 2.6 0.00 0.00 0.00 65 1004.5
20260502211405 56 316 0.9 2.6 0.00 0.00 0.00 66 1004.6
20260502210905 56 39 0.9 2.6 0.00 0.00 0.00 67 1004.6
20260502210404 57 49 0.0 1.7 0.00 0.00 0.00 66 1004.5
20260502204905 58 335 0.9 1.7 0.00 0.00 0.00 65 1004.5
20260502204405 57 25 0.9 2.6 0.00 0.00 0.00 65 1004.5
20260502203405 57 338 1.7 5.2 0.00 0.00 0.00 66 1004.6
20260502202905 58 18 0.9 2.6 0.00 0.00 0.00 66 1004.7
20260502201904 59 345 1.7 4.3 0.00 0.00 0.00 65 1004.8
20260502201405 59 29 0.9 2.6 0.00 0.00 0.00 62 1004.8
20260502200404 59 357 1.7 4.3 0.00 0.00 0.00 64 1004.9
20260502195905 58 328 2.6 4.3 0.00 0.00 0.00 64 1004.9
20260502195405 58 340 1.7 4.3 0.00 0.00 0.00 65 1005.0
20260502194904 58 333 0.9 4.3 0.00 0.00 0.00 65 1005.0
20260502193905 57 341 1.7 2.6 0.00 0.00 0.00 68 1005.1
20260502193404 58 322 1.7 4.3 0.00 0.00 0.00 68 1005.1
20260502192905 59 328 1.7 4.3 0.00 0.00 0.00 64 1005.2
20260502191905 59 329 1.7 4.3 0.00 0.00 0.00 62 1005.3
20260502191405 58 333 1.7 4.3 0.00 0.00 0.00 63 1005.3
20260502190904 58 345 1.7 4.3 0.00 0.00 0.00 64 1005.3
20260502190404 58 335 2.6 5.2 0.00 0.00 0.00 64 1005.4
20260502185905 58 335 1.7 4.3 0.00 0.00 0.00 64 1005.4
20260502185405 59 332 2.6 4.3 0.00 0.00 0.00 62 1005.4
20260502184404 59 332 1.7 2.6 0.00 0.00 0.00 64 1005.4
20260502183905 58 312 1.7 5.2 0.00 0.00 0.00 65 1005.4
20260502183406 58 317 1.7 4.3 0.00 0.00 0.00 64 1005.5
20260502182904 58 332 0.9 2.6 0.00 0.00 0.00 64 1005.5
20260502182405 58 329 1.7 2.6 0.00 0.00 0.00 64 1005.5
20260502181905 58 303 1.7 4.3 0.00 0.00 0.00 64 1005.5
20260502181404 58 356 1.7 2.6 0.00 0.00 0.00 65 1005.5
20260502180905 59 341 1.7 4.3 0.00 0.00 0.00 65 1005.5
20260502180405 60 320 1.7 4.3 0.00 0.00 0.00 62 1005.5
20260502170404 57 330 0.9 2.6 0.00 0.00 0.00 67 1006.1
20260502163904 55 37 0.0 1.7 0.00 0.00 0.00 70 1006.1
20260502163405 55 344 0.9 1.7 0.00 0.00 0.00 71 1006.1
20260502162905 55 309 0.9 2.6 0.00 0.00 0.00 71 1006.1
20260502161905 54 346 0.9 1.7 0.00 0.00 0.00 72 1006.2
20260502161405 54 51 0.9 1.7 0.00 0.00 0.00 73 1006.4
20260502160904 54 317 0.9 2.6 0.00 0.00 0.00 73 1006.4
20260502160404 54 341 0.9 1.7 0.00 0.00 0.00 73 1006.5
20260502151904 53 175 0.0 1.7 0.00 0.00 0.00 78 1006.7
20260502151404 53 330 0.9 1.7 0.00 0.00 0.00 77 1006.7
20260502150905 53 67 0.9 2.6 0.00 0.00 0.00 79 1006.7
20260502150404 53 333 0.9 1.7 0.00 0.00 0.00 80 1006.7
20260502122905 51 332 1.7 2.6 0.00 0.00 0.00 90 1006.9
20260502122405 51 326 0.0 0.9 0.00 0.00 0.00 91 1006.9
20260502121905 51 138 0.0 0.9 0.00 0.00 0.00 91 1006.6
20260502121404 51 124 0.0 0.9 0.00 0.00 0.00 92 1006.6
20260502120905 51 125 0.0 0.0 0.00 0.00 0.00 92 1006.7
20260502115904 50 125 0.0 0.9 0.00 0.00 0.00 92 1006.5
20260502115404 50 84 0.0 0.9 0.00 0.00 0.00 90 1006.5
20260502114904 50 52 0.9 1.7 0.00 0.00 0.00 92 1006.4
20260502113904 50 12 0.0 0.0 0.00 0.00 0.00 90 1006.4
20260502113405 50 51 0.0 0.9 0.00 0.00 0.00 88 1006.3
20260502112904 51 337 0.0 0.9 0.00 0.00 0.00 90 1006.5
20260502112405 51 332 0.9 1.7 0.00 0.00 0.00 88 1006.7
20260502111905 51 326 0.0 0.0 0.00 0.00 0.00 88 1006.9
20260502111404 51 326 0.9 2.6 0.00 0.00 0.00 87 1006.9
20260502110904 51 334 0.9 2.6 0.00 0.00 0.00 88 1007.1
20260502110404 51 315 1.7 2.6 0.00 0.00 0.00 88 1007.1
20260502105904 50 336 0.0 0.9 0.00 0.00 0.00 89 1006.7
20260502105405 50 315 0.9 1.7 0.00 0.00 0.00 90 1006.7
20260502104904 50 337 0.0 0.9 0.00 0.00 0.00 90 1006.6
20260502104405 50 332 0.0 0.9 0.00 0.00 0.00 90 1006.7
20260502103904 50 331 0.0 0.0 0.00 0.00 0.00 91 1006.6
20260502103405 50 331 0.0 0.9 0.00 0.00 0.00 91 1006.6
20260502102905 49 342 0.0 0.9 0.00 0.00 0.00 91 1006.6
20260502102405 49 333 0.9 2.6 0.00 0.00 0.00 91 1006.4
20260502101904 49 29 0.0 0.9 0.00 0.00 0.00 92 1006.4
20260502101404 49 297 0.0 0.9 0.00 0.00 0.00 92 1006.3
20260502100405 49 329 0.0 1.7 0.00 0.00 0.00 92 1006.3
20260502091404 49 135 0.0 0.9 0.00 0.00 0.00 90 1006.3
20260502090905 49 329 0.0 0.9 0.00 0.00 0.00 90 1006.3
20260502090404 49 330 0.0 0.9 0.00 0.00 0.00 90 1006.4
20260502071404 48 325 0.0 0.9 0.00 0.00 0.00 88 1006.4
20260502070905 48 333 0.0 0.9 0.00 0.00 0.00 88 1006.4
20260502070405 48 333 0.9 0.9 0.00 0.00 0.00 88 1006.4
20260502065404 48 10 0.0 0.9 0.00 0.00 0.00 88 1006.4
20260502064904 48 315 0.9 0.9 0.00 0.00 0.00 87 1006.4
20260502064405 49 337 0.0 0.9 0.00 0.00 0.00 86 1006.5
20260502063904 49 342 0.0 0.9 0.00 0.00 0.00 86 1006.5
20260502063404 49 99 0.9 0.9 0.00 0.00 0.00 85 1006.6
20260502062905 49 325 0.0 0.9 0.00 0.00 0.00 85 1006.8
20260502062404 49 317 0.0 0.9 0.00 0.00 0.00 85 1006.9
20260502061904 49 335 0.0 0.9 0.00 0.00 0.00 85 1006.7
20260502061404 49 31 0.0 1.7 0.00 0.00 0.00 85 1006.6
20260502060905 49 354 0.0 0.9 0.00 0.00 0.00 84 1006.7
20260502060405 49 8 0.9 1.7 0.00 0.00 0.00 84 1006.7
20260502055904 49 287 0.0 1.7 0.00 0.00 0.00 84 1006.7
20260502055405 49 315 0.0 0.9 0.00 0.00 0.00 84 1006.6
20260502054905 49 335 0.9 1.7 0.00 0.00 0.00 84 1006.5
20260502054404 49 357 0.0 0.9 0.00 0.00 0.00 84 1006.6
20260502053405 49 15 0.0 0.9 0.00 0.00 0.00 83 1006.6
20260502052904 49 310 0.9 0.9 0.00 0.00 0.00 82 1006.7
20260502052404 49 341 0.0 1.7 0.00 0.00 0.00 82 1006.7
20260502051904 49 335 0.0 0.9 0.00 0.00 0.00 82 1006.7